User: anonymous   Login
Location: Asheville, NC
(35.6000°N, 82.5500°W)
Time: 19:50:23
(UTC-04:00)
Language:

Max Valier Satellite - Orbit

View from above orbital plane
View from above orbital plane
View from above satellite
View from above satellite

Ground track
Ground track

The orbit data is extracted from the following two-line orbital elements,

1 42778U 17036P   18170.41704619  .00000979  00000-0  46760-4 0  9996
2 42778  97.4031 230.0932 0014261  66.0744 294.1984 15.21316116 54849
Epoch (UTC): 19 June 2018 10:00:32
Eccentricity: 0.0014261
inclination: 97.4031°
perigee height: 492 km
apogee height: 511 km
right ascension of ascending node: 230.0932°
argument of perigee: 66.0744°
revolutions per day: 15.21316116
mean anomaly at epoch: 294.1984°
orbit number at epoch: 5484

The dashed part of the orbit path shows where the satellite is in the earth's shadow,  

DLR